x

Kaunakakai, Molokai Airport (91186) Weather Station

3:54 - Sat 25th Jun 2016 All times are HST. -10 hours from GMT.

  • Wind
    17mph, 24mph gusts
  • Air Temp 81°f
  • Sea Pressure 1015.9mb
  • Kaunakakai, Molokai Airport
  • Kaunakakai, Molokai Airport

More Historic Weather Station data

Upgrade to MSW Pro to gain access to the past 30 days of data for over 8000 Wavebouys and Weather Stations around the globe.

Join Pro

Comparision Forecast

View Surf forecast
   
sam. 06/25 3:54 17 24 mph 1015.9mb 81f
3:26 17 25 mph 1016.3mb 81f
2:54 14 23 mph 1016.3mb 81f
1:54 15 25 mph 1016.6mb 81f
1:25 18 27 mph 1016.6mb 82f
1:07 14 30 mph 1016.9mb 81f
12:54 18 25 mph 1016.9mb 82f
11:54 16 25 mph 1017.3mb 81f
10:54 16 28 mph 1017.6mb 81f
9:54 13 28 mph 1017.6mb 81f
8:54 16 28 mph 1018mb 77f
7:54 13 22 mph 1017.6mb 75f
7:35 14 22 mph 1017.3mb 75f
7:23 13 25 mph 1017.6mb 73f
6:54 15 20 mph 1017.3mb 73f
5:54 9 22 mph 1016.6mb 73f
4:54 9 21 mph 1016.9mb 73f
3:54 9
mph
1016.6mb 73f
2:54 8
mph
1016.6mb 73f
1:54 9
mph
1016.9mb 73f
12:54 13
mph
1017.3mb 73f
ven. 06/24 11:54 9
mph
1018mb 73f
10:54 15 23 mph 1018.3mb 73f
9:54 12 20 mph 1018.3mb 73f
8:54 9
mph
1018mb 75f
7:54 10 17 mph 1017.6mb 75f
6:54 10 18 mph 1016.9mb 77f
5:54 14 20 mph 1016.6mb 79f
4:54 14 24 mph 1016.3mb 79f
3:54 16 23 mph 1016.6mb 82f
2:54 14 27 mph 1016.6mb 82f
1:54 14 27 mph 1016.9mb 82f
12:54 14 21 mph 1016.9mb 82f
11:54 12 22 mph 1017.6mb 81f
10:54 13 21 mph 1018mb 81f
9:54 13 18 mph 1018.3mb 79f
8:54 8 20 mph 1018.6mb 75f
8:32 13 22 mph 1018.3mb 77f
7:54 10 20 mph 1018.3mb 75f
6:54 10 18 mph 1018.3mb 73f
6:19 9
mph
1018mb 73f
5:54 8
mph
1017.6mb 73f
5:52 7
mph
1017.6mb 73f
5:17 6 17 mph 1017.6mb 73f
4:54 9 22 mph 1017.6mb 73f
4:37 9 20 mph 1017.6mb 73f
3:54 9
mph
1017.6mb 73f
3:02 13 21 mph 1017.6mb 73f
2:54 9 21 mph 1018mb 73f
2:05 10 18 mph 1018mb 73f
1:54 9 16 mph 1018mb 73f
1:23 10 17 mph 1018mb 73f
12:54 8
mph
1018.3mb 73f
jeu. 06/23 11:54 10 17 mph 1019mb 73f
10:54 13 16 mph 1019mb 75f
9:54 8 16 mph 1019mb 75f
8:54 14 20 mph 1018.6mb 75f
7:54 17 28 mph 1018.3mb 75f
7:35 15 22 mph 1018.3mb 75f
6:54 16 22 mph 1017.6mb 75f
6:05 13 24 mph 1017.6mb 77f
5:54 15 22 mph 1017.6mb 77f
5:03 13 22 mph 1017.3mb 79f
4:54 12 25 mph 1017.3mb 79f
4:33 15 25 mph 1017.3mb 79f
4:02 14 28 mph 1017.6mb 81f
3:54 15 23 mph 1017.6mb 81f
2:54 17 24 mph 1017.6mb 82f
2:12 18 29 mph 1018mb 82f
1:54 16 23 mph 1018mb 81f
12:54 15 22 mph 1018.6mb 82f
11:54 17 28 mph 1018.6mb 82f
10:54 15 24 mph 1019mb 82f
9:54 14 25 mph 1018.6mb 81f
8:54 14 20 mph 1018.3mb 81f
7:54 9
mph
1018.3mb 75f
7:03 10 16 mph 1018mb 75f
6:54 10 18 mph 1018mb 75f
6:46 10 17 mph 1018mb 73f
5:54 9 21 mph 1017.3mb 73f
4:54 12 21 mph 1016.9mb 73f
3:54 10
mph
1016.6mb 73f
2:54 8
mph
1016.9mb 73f
1:54 7
mph
1017.3mb 73f
12:54 8
mph
1017.6mb 73f
mer. 06/22 11:54 7
mph
1018.3mb 73f
10:54 8
mph
1018.6mb 73f
9:54 10 16 mph 1018.3mb 73f
8:54 12 18 mph 1017.6mb 73f
7:54 9
mph
1017.3mb 73f
7:19 8
mph
1016.9mb 73f
7:10 8
mph
1016.9mb 73f
6:54 12 18 mph 1016.6mb 73f
6:52 12 21 mph 1016.6mb 73f
5:54 15 23 mph 1016.3mb 77f
4:54 16 27 mph 1015.9mb 81f
3:54 17 25 mph 1015.9mb 81f
2:54 12 25 mph 1016.3mb 82f
1:54 17 32 mph 1016.6mb 82f
12:54 16 27 mph 1016.9mb 82f
11:54 16 28 mph 1017.6mb 82f
10:54 15 25 mph 1018mb 82f
9:54 14 28 mph 1018mb 81f
8:54 12 24 mph 1018.3mb 81f
7:54 13 21 mph 1018.3mb 79f
7:50 10 23 mph 1018.3mb 77f
6:54 12 18 mph 1017.6mb 75f
5:54 9 17 mph 1016.9mb 73f
4:54 12 20 mph 1016.6mb 73f
3:54 9
mph
1016.3mb 73f
3:34 9
mph
1016.6mb 73f
2:54 7
mph
1016.6mb 73f